Simultaneous Nadir Overpasses (SNOs) Predictions

Prediction of SNOs between GOES-16 and LANDSAT-8 Satellite Orbit:

Table of predicted SNOs for the next 14.0 days since TLE Epoch: 3/6/2021
Index Date Time (GOES-16) GOES-16 Lat,Lon LANDSAT-8 Lat,Lon Distance(km) Time Diff (sec)
1 03/07/2021 03:03:27 -0.02, -75.18 0.39, -73.17 228.74 80
2 03/07/2021 15:24:42 0.03, -75.21 0.66, -78.33 354.34 80
3 03/09/2021 15:12:29 0.03, -75.21 0.07, -75.37 18.01 80
4 03/11/2021 15:02:58 0.03, -75.22 -0.59, -72.42 319.18 80
5 03/12/2021 03:24:21 -0.02, -75.19 -0.51, -77.61 274.04 80
6 03/14/2021 03:09:28 -0.02, -75.21 0.09, -74.65 64.30 80
7 03/16/2021 02:57:16 -0.02, -75.24 0.76, -71.70 403.36 80
8 03/16/2021 15:18:31 0.02, -75.27 0.35, -76.85 179.12 80
9 03/18/2021 15:08:58 0.02, -75.30 -0.25, -73.89 160.49 80
10 03/19/2021 03:30:22 -0.02, -75.28 -0.84, -79.08 431.84 80
